This is the latest recevied weather packets stored in our database for station/object N0HEQ. If no packets are shown the sender has not sent any weather packets the latest 10 day(s).
| Time | Temp. | Humidity | Pressure | Rain* | Wind** | Luminosity | Snow |
|---|---|---|---|---|---|---|---|
| 1777791949 | 8.33° C | 41% | 1020.3 hPa | 0 mm | - | 0 W/m² | - |
| 1777791649 | 8.33° C | 41% | 1020.3 hPa | 0 mm | - | 0 W/m² | - |
| 1777791345 | 8.89° C | 40% | 1020.5 hPa | 0 mm | - | 0 W/m² | - |
| 1777791043 | 9.44° C | 39% | 1020.6 hPa | 0 mm | - | 0 W/m² | - |
| 1777790740 | 10° C | 37% | 1020.3 hPa | 0 mm | - | 0 W/m² | - |
| 1777790437 | 10° C | 37% | 1020.5 hPa | 0 mm | - | 0 W/m² | - |
| 1777790134 | 10° C | 37% | 1020.5 hPa | 0 mm | - | 0 W/m² | - |
| 1777789833 | 8.89° C | 39% | 1020.5 hPa | 0 mm | - | 0 W/m² | - |
| 1777789531 | 8.33° C | 40% | 1020.6 hPa | 0 mm | - | 0 W/m² | - |
| 1777789229 | 8.33° C | 40% | 1020.6 hPa | 0 mm | - | 0 W/m² | - |
| 1777788925 | 8.89° C | 39% | 1020.5 hPa | 0 mm | - | 0 W/m² | - |
| 1777788622 | 8.89° C | 38% | 1020.5 hPa | 0 mm | - | 0 W/m² | - |
| 1777788321 | 8.89° C | 38% | 1020.5 hPa | 0 mm | - | 0 W/m² | - |
| 1777788018 | 9.44° C | 38% | 1020.5 hPa | 0 mm | - | 0 W/m² | - |
| 1777787713 | 9.44° C | 37% | 1020.5 hPa | 0 mm | - | 0 W/m² | - |
| 1777787409 | 10° C | 36% | 1020.5 hPa | 0 mm | - | 0 W/m² | - |
| 1777787104 | 10° C | 35% | 1020.5 hPa | 0 mm | - | 0 W/m² | - |
| 1777786802 | 10.56° C | 34% | 1020.5 hPa | 0 mm | - | 0 W/m² | - |
| 1777786500 | 10.56° C | 34% | 1020.5 hPa | 0 mm | - | 0 W/m² | - |
| 1777786196 | 10.56° C | 33% | 1020.3 hPa | 0 mm | - | 0 W/m² | - |
| 1777785894 | 10.56° C | 33% | 1020.1 hPa | 0 mm | - | 0 W/m² | - |
| 1777785590 | 10.56° C | 33% | 1020.2 hPa | 0 mm | - | 0 W/m² | - |
| 1777785286 | 11.67° C | 32% | 1020.2 hPa | 0 mm | - | 0 W/m² | - |
| 1777784983 | 12.22° C | 30% | 1020.2 hPa | 0 mm | - | 0 W/m² | - |
| 1777784679 | 12.78° C | 29% | 1020.2 hPa | 0 mm | - | 0 W/m² | - |
* Rain latest hour (hover to see other rain measurements)
** Current wind speed in m/s (hover to see current wind gust speed)